Welcome to the New NWS' Forecast!
Most changes are behind the scenes, but click here for differences you might notice.

Regional Weather Roundup (RWR)

Issued by National Weather Service (NWS)

                            
049 
ASUS44 KJAN 201210
RWRMS 

MISSISSIPPI HOURLY WEATHER ROUNDUP
NATIONAL WEATHER SERVICE JACKSON MS
700 AM CDT MON AUG 20 2018

NOTE: "FAIR: INDICATES FEW OR NO CLOUDS BELOW 12,000 FEET WITH NO
SIGNIFICANT WEATHER AND/OR OBSTRUCTIONS TO VISIBILITY.

MSZ001>002-007>008-010>013-018>021-025>028-034>036-201300-
NORTHWEST MISSISSIPPI
  
CITY           SKY/WX    TMP DP  RH WIND       PRES   REMARKS
BATESVILLE     PTSUNNY   73  72  94 SW6       29.95S                  
CLARKSDALE     CLOUDY    72  72 100 SE7       29.95R FOG              
CLEVELAND      TSTM      71  71 100 MISG      29.97S                  
GREENWOOD      LGT RAIN  75  73  93 CALM      29.98R FOG              
6HR MIN TEMP:  74; 6HR MAX TEMP:  75; 6HR PCP:  0.05;                

GREENVILLE     TSTM      71  69  93 NE12      29.94S FOG              
6HR MIN TEMP:  71; 6HR MAX TEMP:  76; 6HR PCP:  0.11;                

OLIVE BRANCH   LGT RAIN  72  70  94 S8        29.92                   
OXFORD         MOCLDY    73  72  94 SW7       29.97R                  
TUNICA         RAIN      70  68  94 S9        29.94R                  
WINONA         TSTM      72  72 100 CALM      29.98R                  
$$

MSZ003>006-009-014>017-022>024-029>033-037>039-201300-
NORTHEAST MISSISSIPPI
  
CITY           SKY/WX    TMP DP  RH WIND       PRES   REMARKS
ABERDEEN       CLOUDY    73  73 100 S6        29.99S                  
COLUMBUS AFB   NOT AVBL                                               
CORINTH          N/A     75  72  88 S7        29.93F                  
GOLDN TRIANGLE CLOUDY    74  73  97 S9        29.99S                  
STARKVILLE     CLOUDY    72  72 100 CALM      29.99S                  
TUPELO         CLOUDY    74  72  93 SE8       29.97R FOG              
6HR MIN TEMP:  74; 6HR MAX TEMP:  75;                                

$$

MSZ040-058-201300-
CENTRAL MISSISSIPPI
  
CITY           SKY/WX    TMP DP  RH WIND       PRES   REMARKS
JACKSON INTL   FAIR      74  73  97 S7        29.99S                  
6HR MIN TEMP:  73; 6HR MAX TEMP:  74;                                

JACKSON HAWKNS MOCLDY    76  75  97 S7        29.99S                  
6HR MIN TEMP:  73; 6HR MAX TEMP:  76;                                

MADISON        CLOUDY    72  72 100 S5        29.98S                  
MERIDIAN KEY   CLOUDY    76  73  91 S6        30.01S                  
6HR MIN TEMP:  75; 6HR MAX TEMP:  76;                                

MERIDIAN NAS   CLOUDY    76  74  93 CALM      30.01S                  
6HR MIN TEMP:  74; 6HR MAX TEMP:  76;                                

RAYMOND        PTSUNNY   75  75 100 S5        29.98R                  
VICKSBURG VKS  SUNNY     77  75  94 S7        29.97R                  
$$

MSZ059>079-201300-
SOUTH MISSISSIPPI
  
CITY           SKY/WX    TMP DP  RH WIND       PRES   REMARKS
COLUMBIA       CLOUDY    73  73 100 S3        30.06R FOG              
HATTIESBURG    FAIR      75  74  96 S3        30.03R                  
6HR MIN TEMP:  74; 6HR MAX TEMP:  75;                                

LAUREL         FAIR      73  73 100 CALM      30.02R                  
MCCOMB         FAIR      74  71  91 S5        30.02R FOG              
6HR MIN TEMP:  73; 6HR MAX TEMP:  75;                                

NATCHEZ        FAIR      76  75  97 S7        30.00R                  
6HR MIN TEMP:  75; 6HR MAX TEMP:  76;                                

PINE BELT      FAIR      72  72 100 CALM      30.03R FOG              
6HR MIN TEMP:  72; 6HR MAX TEMP:  73;                                

$$

MSZ080>082-201300-
COASTAL MISSISSIPPI
  
CITY           SKY/WX    TMP DP  RH WIND       PRES   REMARKS
BAY ST LOUIS   CLEAR     75  75 100 CALM      30.03                   
BILOXI         MOCLDY    82  77  83 SW6       30.02R HX  91           
PASCAGOULA     FAIR      77  74  90 CALM      30.03R                  
6HR MIN TEMP:  75; 6HR MAX TEMP:  77; 6HR PCP:  0.01;                

GULFPORT       FAIR      83  77  82 SW5       30.02R HX  92           
6HR MIN TEMP:  81; 6HR MAX TEMP:  83;                                

$$

LAZ007>009-015>016-023>026-201300-
NORTHEAST LOUISIANA
  
CITY           SKY/WX    TMP DP  RH WIND       PRES   REMARKS
BASTROP        CLOUDY    78  77  98 SW7       29.95R                  
TALLULAH/VBURG FAIR      76  76 100 S6        29.96R                  
6HR MIN TEMP:  75; 6HR MAX TEMP:  77;                                

VIDALIA        PTSUNNY   77  76  97 S6        29.98R                  
$$